User: anonymous   Login
Location: Unspecified
(0.0000°N, 0.0000°E)
Time: 09:58:05
(UTC+01:00)
Language:

Iridium 4 Rocket - Orbit

View from above orbital plane
View from above orbital plane
View from above satellite
View from above satellite

Ground track
Ground track

The orbit data is extracted from the following two-line orbital elements,

1 24797U 97020F   18048.65527465  .00000102  00000-0  16883-4 0  9991
2 24797  86.8924 263.4418 0223883 218.5110 201.8964 14.44037130 93368
Epoch (UTC): 17 February 2018 15:43:35
Eccentricity: 0.0223883
inclination: 86.8924°
perigee height: 586 km
apogee height: 904 km
right ascension of ascending node: 263.4418°
argument of perigee: 218.5110°
revolutions per day: 14.44037130
mean anomaly at epoch: 201.8964°
orbit number at epoch: 9336

The dashed part of the orbit path shows where the satellite is in the earth's shadow,  

DLR